Location: Go?cza
(50.3372°N, 19.9313°E)
Time: 01:41:27
(UTC+00:00)

Cosmos 1703 Rocket - Pass Details

Date: 23 May 2024
Orbit: 602 x 629 km, 82.5° (Epoch: 18 June)

Event Time Altitude Azimuth Distance (km) Brightness Sun altitude
Exits shadow 00:59:01 18° 225° (SW) 1,526 4.9 -12.4°
Maximum altitude 01:01:54 40° 287° (WNW) 922 4.3 -12.2°
Drops below altitude 10° 01:06:07 10° 358° (N) 2,016 7.0 -11.8°
Sets 01:08:29 0° 5° (N) 2,931 8.1 -11.5°
